Accueil
METAR-TAF:

METAR-TAF

Aéroports :

Euro, Pays-Bas

Plate-forme pétrolière

latitude: 51-59-52N, longitude: 3-16-30E, altitude: 18 m

Observation

Le bulletin a été fait il y a 32 minutes, à 16:55 UTC
Vent 25 kt de sud/sud-ouest avec des rafales jusqu'à 29 kt
Température 17°C
Humidité 88%
Pression 1011 hPa
Visibilité 10 km ou plus

METAR: EHSA 251655Z AUTO 21025G29KT 9999 ///////// 17/15 Q1011 W17/H15

Heure: 19:27 (17:27 UTC)


TAF: absent

Observations et prévisions météorologiques de plus de 4000 aéroports (messages METAR et TAF).

Les stations disponibles sont représentées par des disques jaunes et rouges sur la carte.

Passer la souris dessus pour voir le nom de la station.

Cliquer dessus pour voir les observations et prévisions météorologiques.

Pour changer de carte: cliquez sur les boutons verts avec une croix noire pour zoomer, sur le bouton vert avec un tiret pour effectuer un zoom arrière, ou sur les flèches vertes pour les cartes adjacentes.


METAR-TAF: